www.pogodaiklimat.ru

АРХИВ ПОГОДЫ в Самаре

Время (UTC), дата Ветер
(напр.,м/с)
 
Видим.   Явления Облачность Т
(С)
Тd
(С)
f
(%)
Тe
(С)
Тes
(С)
Комфортность P
(гПа)
Po
(гПа)
Тmin
(С)
Tmax
(С)
R
(мм)
S
(см)
15 11.01 З 3 10 км 10/10 700 м
[Sc]
-7.1 -7.1 100 -13 -13 1025.1 1006.9 -6.7
18 11.01 З 1 10 км 10/10 720 м
[Sc]
-7.2 -7.2 100 -10 -10 1025.5 1007.3
21 11.01 З 1 10 км 10/10 660 м
[Sc]
-7.2 -7.2 100 -10 -10 1025.7 1007.6
00 12.01 З 2 10 км 10/10 600 м
[Sc]
-7.6 -7.6 100 -12 -12 1026.2 1008.0
03 12.01 З 1 4000 м слабый снег 10/10 600 м
[Frnb Ns]
-8.6 -8.6 100 -11 -11 1026.0 1007.7 -8.6 52
06 12.01 СЗ 2 4000 м слабый снег {туман} 10/10 300 м
[Frnb Ns]
-10.0 -10.3 98 -15 -15 1026.1 1007.7 -10.0
09 12.01 Ю 1 10 км слабый снег 9/9 300 м
[Sc]
-10.3 -10.9 95 -13 -12 1026.0 1007.6
12 12.01 ЮЗ 2 10 км слабый снег 8/4 300 м
[Sc Ac trans Ci fib]
-11.2 -13.0 87 -16 -16 1025.5 1007.1
15 12.01 ЮЗ 2 10 км {снег} ясно -12.3 -13.8 89 -17 -17 1025.5 1007.0 -8.6 0.0
18 12.01 ЮЗ 1 10 км {снег} ясно -13.4 -14.8 89 -16 -16 1024.8 1006.2
21 12.01 ЮЗ 2 10 км слабый снег 10/8 600 м
[Sc Ac und]
-10.9 -12.4 89 -15 -15 1025.1 1006.7
00 13.01 В 1 10 км слабый снег 10/10 600 м
[Sc]
-10.2 -10.2 100 -13 -13 1024.7 1006.3
03 13.01 В 2 4000 м дымка {снег} 10/10 300 м
[Sc]
-9.1 -9.1 100 -14 -14 1023.6 1005.3 -13.6 0.2 51
06 13.01 ЮВ 1 4000 м слабый снег 10/10 600 м
[Sc]
-6.9 -6.9 100 -9 -9 1023.9 1005.8
09 13.01 В 3 10 км в посл. час снег 10/8 600 м
[Sc Ac trans]
-6.8 -6.8 100 -13 -13 1023.9 1005.7
12 13.01 ЮВ 2 10 км {снег} 10/10 600 м
[Sc]
-6.8 -6.8 100 -11 -11 1024.6 1006.4
15 13.01 В 2 10 км 10/10 630 м
[Sc]
-6.9 -6.9 100 -12 -12 1025.4 1007.3 -6.6 0.1
18 13.01 Ю 2 4000 м дымка 10/10 450 м
[Sc]
-8.4 -8.4 100 -13 -13 1026.5 1008.2
21 13.01 Ю 1 10 км 10/6 600 м
[Sc Ac trans]
-10.3 -10.9 95 -13 -13 1028.0 1009.5
00 14.01 ЮВ 2 10 км {снег} 10/6 600 м
[Sc Ac trans]
-11.0 -11.6 95 -16 -16 1028.1 1009.6
03 14.01 ЮВ 1 10 км слабый снег 10/8 600 м
[Sc Ac trans]
-11.8 -12.9 92 -14 -14 1028.6 1010.0 -11.8 0.2 51
06 14.01 ЮВ 2 10 км слабый снег 10/5 600 м
[Sc Ac trans]
-12.1 -13.3 91 -17 -17 1030.1 1011.5 -12.1
09 14.01 В 2 10 км слабый снег 10/5 600 м
[Sc Ci fib]
-12.4 -14.1 87 -17 -16 1030.9 1012.3
12 14.01 ЮВ 1 10 км слабый снег 10/8 600 м
[Sc Ac trans]
-12.3 -14.0 87 -15 -15 1031.7 1013.1
15 14.01 В 2 10 км {снег} 10/3 600 м
[Sc Ac trans]
-13.0 -14.6 88 -18 -18 1032.7 1013.9 -11.7 0.3
18 14.01 В 2 10 км {снег} 10/0
[Ac trans]
-14.1 -15.7 88 -19 -19 1032.9 1014.1
21 14.01 В 3 10 км 10/3 600 м
[Sc Ac trans]
-15.2 -16.6 89 -22 -22 1033.8 1014.9
00 15.01 В 3 4000 м дымка 10/0
[Ac trans Ci fib]
-17.3 -19.0 87 -24 -24 1034.1 1015.0
03 15.01 В 3 4000 м слабый снег 10/0
[Ac trans]
-17.3 -19.0 87 -24 -24 1033.9 1014.9 -17.6 0.2 51
06 15.01 В 2 4000 м снег 10/0
[Ac trans Ci fib]
-16.7 -18.3 87 -22 -22 1034.3 1015.5
09 15.01 В 2 10 км слабый снег 10/4 600 м
[Sc Ac trans]
-14.3 -15.7 89 -19 -19 1034.5 1015.6
12 15.01 В 2 10 км слабый снег 3/3 600 м
[Sc]
-13.5 -14.9 89 -18 -18 1034.7 1015.9
15 15.01 В 3 10 км {снег} ясно -15.0 -16.5 88 -22 -22 1034.5 1015.6 -12.9 0.3
18 15.01 В 2 10 км {снег} ясно -17.6 -19.3 87 -23 -23 1034.7 1015.6
21 15.01 В 2 10 км ясно -18.3 -20.1 86 -24 -24 1035.3 1016.1
00 16.01 В 3 10 км ясно -18.7 -20.5 86 -26 -26 1035.1 1015.9
03 16.01 В 2 10 км 3/3 600 м
[Sc]
-19.6 -21.5 85 -25 -25 1035.1 1015.9 -19.6 51
06 16.01 В 3 10 км ясно -19.1 -20.9 86 -27 -26 1035.6 1016.4 -19.8
09 16.01 ЮВ 1 10 км ясно -14.1 -16.4 83 -17 -15 1035.7 1016.8
12 16.01 ЮВ 2 10 км 3/0
[Ci fib]
-13.7 -17.4 74 -18 -18 1035.8 1016.9
15 16.01 В 4 10 км ясно -14.4 -16.8 82 -22 -22 1035.7 1016.8 -13.2
18 16.01 В 3 10 км ясно -14.6 -16.7 84 -21 -21 1035.7 1016.8
21 16.01 В 2 10 км ясно -14.7 -16.8 84 -20 -20 1035.7 1016.8
00 17.01 В 3 10 км ясно -14.9 -17.1 83 -21 -21 1035.9 1017.0
03 17.01 В 2 10 км 3/0
[Ci fib]
-16.0 -18.1 84 -21 -21 1035.6 1016.6 -16.0 51
06 17.01 В 3 10 км 8/0
[Ci fib]
-15.8 -18.0 83 -23 -22 1035.5 1016.5 -16.5
09 17.01 В 2 10 км 8/0
[Ci fib]
-12.0 -15.9 73 -17 -15 1035.2 1016.5
12 17.01 ЮВ 1 10 км 8/0
[Ac trans Ci fib]
-12.1 -16.0 73 -14 -14 1034.6 1015.9
15 17.01 В 3 10 км 4/0
[Ci fib]
-12.4 -15.8 76 -18 -18 1034.3 1015.6 -10.8
18 17.01 В 2 10 км 3/0
[Ac trans]
-14.0 -16.4 82 -19 -19 1033.6 1014.8
21 17.01 В 2 10 км ясно -15.5 -17.3 86 -21 -21 1033.0 1014.1
00 18.01 ЮВ 2 10 км ясно -15.8 -17.5 87 -21 -21 1032.5 1013.6
03 18.01 штиль 0 10 км 5/0
[Ac trans]
-17.5 -19.2 87 -18 -18 1032.1 1013.1 -17.5 51
06 18.01 З 1 10 км 9/0
[Ac trans]
-15.7 -17.4 87 -18 -18 1032.0 1013.1
09 18.01 ЮЗ 1 10 км слабый снег 10/8
[Sc diur, vesp Ac trans]
-13.2 -15.5 83 -16 -15 1031.6 1012.9
12 18.01 З 2 4000 м слабый снег 10/8 600 м
[Sc diur, vesp Ac trans]
-13.7 -15.6 86 -18 -18 1031.8 1013.1

 

Местоположение метеостанции Самара (Самарская область, Россия): широта 53.25 долгота 50.22 высота над уровнем моря 139 м.

В архиве по умолчанию представлена погода в Самаре за последнюю неделю. Архивные данные за месяц целиком и за предыдущие месяцы, начиная с января 2011 года, Вы можете получить, выбрав интересующий диапазон дат из раскрывающегося списка и нажав кнопку "Ввод!".

Внимание! Время в таблицах - всемирное. Для получения местного времени необходимо прибавить поправку, которая в Самаре равна 4 ч.

Ветер - указаны скорость ветра в м/с - средняя за 10 мин, порывы в срок и между сроками (в фигурных скобках) и направление, откуда дует ветер: С - северный, СВ - северо-восточный, В - восточный, ЮВ - юго-восточный, Ю - южный, ЮЗ - юго-западный, З - западный, СЗ - северо-западный.
Видимость - горизонтальная дальность видимости в метрах или километрах. При видимости от 1 до 10 км при отсутствии осадков обычно наблюдается дымка, при ухудшении видимости до 1 км и менее - туман. В сухую погоду видимость может ухудшаться дымом, пылью или мглою.
Явления - указаны атмосферные явления, наблюдавшиеся в срок или в последний час перед сроком; фигурными скобками обозначены явления, наблюдавшиеся между сроками (за 1-3 часа до срока); квадратными скобками обозначены град или гололедные отложения с указанием их диаметра в мм.
Облачность - указаны через наклонную черту общая и нижняя облачность в баллах и высота нижней границы облаков в метрах; квадратными скобками обозначены формы облаков: Ci - перистые, Cs - перисто-слоистые, Cc - перисто-кучевые, Ac - высококучевые, As - высокослоистые, Sc - слоисто-кучевые, Ns - слоисто-дождевые, Cu - кучевые, Cb - кучево-дождевые. Подробнее классификацию облаков см. в Атласе облаков (PDF).
T - Температура воздуха - температура, измеренная на высоте 2 м над землей.
Td - Температура точки росы - температура, при понижении до которой содержащийся в воздухе водяной пар достигнет насыщения.
f - Относительная влажность воздуха - влажноcть воздуха, измеренная на высоте 2 м над землей.
Te - Эффективная температура - температура, которую ощущает одетый по сезону человек в тени. Характеристика душности погоды. При расчете учитывается влияние влажности воздуха и скорости ветра на теплоощущения человека.
Tes - Эффективная температура на солнце - температура, которую ощущает человек, с поправкой на солнечный нагрев. Характеристика знойности погоды. Зависит от высоты солнца над горизонтом, облачности и скорости ветра. Ночью, в пасмурную погоду, а также при ветре 12 м/с и более поправка равна нулю.
P - Атмосферное давление - приведенное к уровню моря атмосферное давление.
Po - Атмосферное давление - измеренное на уровне метеостанции атмосферное давление.
Tmin - Минимальная температура - минимум температуры воздуха на высоте 2 м над землей.
Tmax - Максимальная температура - максимум температуры воздуха на высоте 2 м над землей.
R - Количество осадков - Количество выпавших осадков, мм. При наведении курсора мыши на число - период времени, за который выпало указанное количество осадков.
S - Снежный покров - Высота снежного покрова, см. При наведении курсора мыши на число - состояние снежного покрова и степень покрытия местности в баллах.